Weather History for KCMA - October, 2012

Change the Weather History Date:

Friday, October 5, 2012

  Actual Average Record
Temperature  
Mean Temperature 66 °F 64 °F  
Max Temperature 74 °F 75 °F 96 °F (1971)
Min Temperature 58 °F 54 °F 44 °F (1955)
Degree Days  
Heating Degree Days 0 2  
Month to date heating degree days 0 10  
Since 1 July heating degree days 35 42  
Cooling Degree Days 1 1  
Month to date cooling degree days 21 5  
Year to date cooling degree days 312 288  
Growing Degree Days 14 (Base 50)    
Moisture  
Dew Point 58 °F    
Average Humidity 81    
Maximum Humidity 100    
Minimum Humidity 61    
Precipitation  
Precipitation 0.00 in 0.01 in 0.93 in (2011)
Month to date precipitation 0.00 0.04  
Year to date precipitation 5.72 11.26  
Since 1 July precipitation 0.04 0.28  
Sea Level Pressure  
Sea Level Pressure 30.03 in    
Wind  
Wind Speed 3 mph (SSE)    
Max Wind Speed 13 mph    
Max Gust Speed -    
Visibility 7 miles    
Events Fog    
T = Trace of Precipitation, MM = Missing Value Source: NWS Daily Summary

Daily Weather History Graph

Daily Weather History Graph

Search for Another Location

Airport or City:

Trip Planner

Search our weather history database for the weather conditions in past years. The results will help you decide how hot, cold, wet, or windy it might be!

Date:

Astronomy

Oct. 05, 2012 Rise Set
Actual Time 6:54 AM PDT 6:34 PM PDT
Civil Twilight 6:29 AM PDT 6:59 PM PDT
Nautical Twilight 6:00 AM PDT 7:28 PM PDT
Astronomical Twilight 5:31 AM PDT 7:57 PM PDT
Moon 10:14 PM PDT (10/5) 11:53 AM PDT (10/5)
Length of Visible Light 12h 30m
Length of Day
11h 40m
Waning Gibbous, 73% of the Moon is Illuminated
Oct 5
Waning Gibbous
Oct 8
Last Quarter
Oct 15
New
Oct 21
First Quarter
Oct 29
Full

Hourly Weather History & Observations

Time (PDT) Temp. Dew Point Humidity Pressure Visibility Wind Dir Wind Speed Gust Speed Precip Events Conditions
12:55 AM 62.1 °F 57.0 °F 84% 30.08 in 10.0 mi NNE 3.5 mph - N/A   Overcast
1:55 AM 62.1 °F 57.9 °F 86% 30.08 in 9.0 mi ENE 4.6 mph - N/A   Overcast
2:31 AM 62.6 °F 57.2 °F 82% 30.05 in 9.0 mi Calm Calm - N/A   Overcast
2:55 AM 61.0 °F 57.9 °F 90% 30.07 in 8.0 mi Calm Calm - N/A   Overcast
3:21 AM 60.8 °F 57.2 °F 88% 30.04 in 7.0 mi NNE 4.6 mph - N/A   Overcast
3:55 AM 60.1 °F 57.9 °F 93% 30.06 in 5.0 mi Calm Calm - N/A   Overcast
4:55 AM 57.9 °F 57.0 °F 97% 30.05 in 2.5 mi ENE 5.8 mph - N/A   Overcast
5:39 AM - - N/A% 30.03 in 4.0 mi Calm Calm - N/A   Haze
5:55 AM - - N/A% 30.04 in 6.0 mi Calm Calm - N/A   Haze
6:26 AM - - N/A% 30.04 in 1.8 mi Calm Calm - N/A   Mostly Cloudy
6:34 AM - - N/A% 30.05 in 1.0 mi Calm Calm - N/A   Mostly Cloudy
6:51 AM - - N/A% 30.05 in 0.5 mi Calm Calm - N/A Fog Fog
6:55 AM - - N/A% 30.05 in 0.2 mi Calm Calm - N/A Fog Fog
6:57 AM - - N/A% 30.05 in 0.5 mi Calm Calm - N/A Fog Fog
7:14 AM - - N/A% 30.05 in 2.0 mi Calm Calm - N/A   Clear
7:18 AM - - N/A% 30.05 in 5.0 mi Calm Calm - N/A   Haze
7:55 AM 57.9 °F 55.0 °F 90% 30.07 in 7.0 mi NE 3.5 mph - N/A   Clear
8:55 AM 63.0 °F 55.0 °F 75% 30.09 in 8.0 mi Calm Calm - N/A   Clear
9:55 AM 66.0 °F 57.9 °F 75% 30.09 in 10.0 mi Variable 4.6 mph - N/A   Clear
10:55 AM 69.1 °F 57.9 °F 68% 30.07 in 9.0 mi Calm Calm - N/A   Clear
11:55 AM 71.1 °F 59.0 °F 66% 30.06 in 9.0 mi WSW 9.2 mph - N/A   Clear
12:55 PM 72.0 °F 57.9 °F 61% 30.04 in 10.0 mi WSW 6.9 mph - N/A   Clear
1:55 PM 72.0 °F 57.9 °F 61% 30.01 in 10.0 mi SW 6.9 mph - N/A   Clear
2:55 PM 72.0 °F 59.0 °F 64% 29.99 in 10.0 mi SW 9.2 mph - N/A   Clear
3:55 PM 72.0 °F 59.0 °F 64% 29.97 in 10.0 mi SSW 5.8 mph - N/A   Clear
4:55 PM 72.0 °F 59.0 °F 64% 29.96 in 10.0 mi SSW 6.9 mph - N/A   Clear
5:55 PM 69.1 °F 60.1 °F 73% 29.93 in 9.0 mi SSW 3.5 mph - N/A   Clear
6:55 PM 68.0 °F 60.1 °F 76% 29.93 in 10.0 mi Calm Calm - N/A   Clear
7:55 PM 66.9 °F 61.0 °F 81% 29.96 in 9.0 mi East 3.5 mph - N/A   Clear
8:55 PM 66.0 °F 61.0 °F 84% 29.96 in 9.0 mi Calm Calm - N/A   Clear
9:55 PM 64.0 °F 59.0 °F 84% 29.97 in 9.0 mi Calm Calm - N/A   Clear
10:55 PM 63.0 °F 57.9 °F 84% 29.97 in 9.0 mi Calm Calm - N/A   Clear
11:55 PM 61.0 °F 55.9 °F 83% 29.98 in 10.0 mi East 3.5 mph - N/A   Clear